GW5895 Weather Reports


time (UTC)temp
C
wind
direction
speed
KPH
gust
KPH
rain 1hr
cm
rain 24hr
cm
rain mn
cm
humidity
%
barometer
mb
20260509064706 12 205 0.0 0.0 0.00 0.20 0.20 97 1007.9
20260509064204 12 223 0.0 0.0 0.00 0.20 0.20 97 1008.1
20260509063701 12 222 0.0 0.0 0.00 0.20 0.20 97 1008.2
20260509063157 12 222 0.0 0.0 0.18 0.20 0.20 97 1008.3
20260509062655 12 206 0.0 0.0 0.18 0.20 0.20 97 1008.4
20260509062152 12 222 0.0 0.0 0.13 0.18 0.18 97 1008.2
20260509061648 12 197 0.0 0.0 0.13 0.18 0.18 97 1008.6
20260509061146 12 204 0.0 0.0 0.18 0.15 0.15 97 1008.6
20260509060644 12 202 0.0 0.0 0.48 0.15 0.15 97 1008.7
20260509060139 12 207 0.0 0.0 0.61 0.13 0.13 97 1008.7
20260509055635 12 209 0.0 0.0 0.43 0.08 0.08 96 1008.7
20260509055131 12 214 0.0 0.0 0.13 0.03 0.03 96 1008.8
20260509054628 12 229 1.6 1.6 0.00 0.00 0.00 96 1009.1
20260509054126 12 189 0.0 0.0 0.00 0.00 0.00 96 1009.0
20260509053624 12 219 0.0 0.0 0.00 0.00 0.00 96 1008.9
20260509053121 12 208 0.0 0.0 0.00 0.00 0.00 96 1008.9
20260509052619 12 201 0.0 0.0 0.00 0.00 0.00 96 1009.2
20260509052116 12 181 0.0 0.0 0.00 0.00 0.00 96 1009.1
20260509051614 12 221 0.0 0.0 0.00 0.00 0.00 96 1009.0
20260509051111 12 221 0.0 1.6 0.00 0.00 0.00 96 1009.1
20260509050608 12 219 0.0 0.0 0.00 0.00 0.00 96 1008.9
20260509050104 12 204 0.0 0.0 0.00 0.00 0.00 96 1008.9
20260509045602 12 204 0.0 0.0 0.00 0.00 0.00 96 1008.8
20260509045058 12 205 0.0 0.0 0.00 0.00 0.00 96 1009.0
20260509044556 12 192 0.0 0.0 0.00 0.00 0.00 96 1008.9
20260509044053 12 205 0.0 0.0 0.00 0.00 0.00 96 1009.0
20260509043549 12 164 0.0 1.6 0.00 0.00 0.00 96 1009.1
20260509043045 12 217 0.0 0.0 0.00 0.00 0.00 96 1009.1
20260509042541 12 217 0.0 0.0 0.00 0.00 0.00 96 1009.1
20260509042038 12 217 0.0 0.0 0.00 0.00 0.00 96 1009.0
20260509041534 12 217 0.0 1.6 0.00 0.00 0.00 96 1008.7
20260509041032 12 227 0.0 0.0 0.00 0.00 0.00 96 1008.6
20260509040530 12 226 0.0 0.0 0.00 0.00 0.00 96 1009.0
20260509040027 12 227 0.0 0.0 0.00 0.86 0.86 96 1008.8
20260509035524 12 231 0.0 1.6 0.00 0.86 0.86 96 1009.0
20260509035020 12 191 0.0 0.0 0.00 0.86 0.86 96 1008.9
20260509034519 12 225 0.0 0.0 0.00 0.86 0.86 96 1008.8
20260509034015 12 224 0.0 0.0 0.00 0.86 0.86 96 1008.7
20260509033512 12 224 0.0 0.0 0.18 0.86 0.86 96 1008.8
20260509033009 12 224 0.0 0.0 0.18 0.86 0.86 96 1008.8
20260509032506 12 223 0.0 0.0 0.18 0.86 0.86 96 1008.9
20260509032004 12 223 0.0 0.0 0.00 0.84 0.84 96 1009.0
20260509031501 12 196 0.0 0.0 0.00 0.84 0.84 96 1008.8
20260509030958 12 201 0.0 0.0 0.13 0.84 0.84 96 1009.0
20260509030456 12 209 1.6 1.6 0.13 0.84 0.84 96 1009.2
20260509025953 12 206 0.0 0.0 0.00 0.81 0.81 95 1009.1
20260509025449 12 207 1.6 3.2 0.00 0.81 0.81 95 1009.1
20260509024944 12 201 0.0 0.0 0.00 0.81 0.81 95 1009.1
20260509024440 12 194 0.0 0.0 0.00 0.81 0.81 95 1009.2
20260509023937 12 215 0.0 0.0 0.00 0.81 0.81 95 1009.3
20260509023435 12 212 1.6 1.6 0.18 0.81 0.81 95 1009.2
20260509022931 12 179 0.0 0.0 0.18 0.81 0.81 95 1009.3
20260509022428 12 208 0.0 0.0 0.00 0.79 0.79 95 1009.6
20260509021926 12 176 0.0 0.0 0.00 0.79 0.79 95 1009.3
20260509021422 12 173 0.0 0.0 0.00 0.79 0.79 95 1009.3
20260509020920 12 170 0.0 0.0 0.00 0.79 0.79 95 1009.1
20260509020418 12 207 0.0 0.0 0.00 0.79 0.79 95 1009.3
20260509015915 12 201 0.0 1.6 0.00 0.79 0.79 96 1009.0
20260509015414 12 203 0.0 0.0 0.00 0.79 0.79 96 1009.0
20260509014910 12 220 1.6 1.6 0.13 0.79 0.79 96 1009.2
20260509014407 13 202 0.0 0.0 0.13 0.79 0.79 96 1009.1
20260509013903 13 241 0.0 1.6 0.00 0.76 0.76 96 1009.0
20260509013400 13 192 0.0 0.0 0.00 0.76 0.76 96 1009.1
20260509012855 12 194 0.0 0.0 0.00 0.76 0.76 96 1009.1
20260509012352 12 168 0.0 0.0 0.18 0.76 0.76 96 1009.0
20260509011850 12 219 0.0 0.0 0.18 0.76 0.76 96 1008.9
20260509011347 12 192 0.0 0.0 0.18 0.74 0.74 96 1008.9
20260509010845 12 211 0.0 1.6 0.18 0.74 0.74 96 1009.1
20260509010342 12 176 0.0 0.0 0.00 0.71 0.71 96 1009.1
20260509005839 12 195 0.0 0.0 0.00 0.71 0.71 96 1009.1
20260509005337 12 211 0.0 0.0 0.00 0.71 0.71 96 1009.2
20260509004837 12 220 0.0 0.0 0.00 0.71 0.71 96 1008.8
20260509004334 12 219 0.0 0.0 0.00 0.71 0.71 96 1008.8
20260509003831 12 218 0.0 0.0 0.00 0.71 0.71 96 1009.1
20260509003329 12 198 0.0 0.0 0.00 0.71 0.71 96 1009.2
20260509002826 12 207 0.0 0.0 0.00 0.71 0.71 96 1009.0
20260509002323 12 199 0.0 0.0 0.00 0.71 0.71 96 1009.1
20260509001821 12 139 0.0 1.6 0.13 0.71 0.71 96 1009.1
20260509001317 12 215 0.0 0.0 0.13 0.71 0.71 96 1009.3
20260509000815 12 173 0.0 0.0 0.18 0.69 0.69 96 1009.3
20260509000312 12 199 0.0 0.0 0.30 0.69 0.69 96 1009.3
20260508235808 12 181 0.0 0.0 0.30 0.66 0.66 96 1009.4
20260508235306 12 246 0.0 1.6 0.18 0.64 0.64 96 1009.6
20260508234803 12 212 0.0 0.0 0.00 0.61 0.61 96 1009.5
20260508234259 12 189 0.0 0.0 0.00 0.61 0.61 96 1009.3
20260508233758 12 206 0.0 0.0 0.00 0.61 0.61 96 1009.2
20260508233256 12 221 0.0 0.0 0.00 0.61 0.61 95 1009.2
20260508232753 12 208 0.0 0.0 0.13 0.61 0.61 95 1009.2
20260508232249 12 205 0.0 0.0 0.13 0.61 0.61 95 1009.3
20260508231748 12 179 0.0 0.0 0.18 0.58 0.58 95 1009.3
20260508231244 12 211 0.0 0.0 0.30 0.58 0.58 95 1009.5
20260508230741 12 212 0.0 1.6 0.30 0.56 0.56 95 1009.6
20260508230237 12 223 0.0 1.6 0.30 0.53 0.53 95 1009.6
20260508225735 12 215 0.0 0.0 0.13 0.51 0.51 95 1009.9
20260508225231 12 209 0.0 0.0 0.18 0.48 0.48 95 1009.3
20260508224729 12 208 0.0 0.0 0.48 0.48 0.48 95 1009.3
20260508224226 12 200 0.0 0.0 0.30 0.46 0.46 95 1009.5
20260508223724 13 214 0.0 0.0 0.48 0.43 0.43 95 1009.6
20260508223221 13 196 0.0 0.0 0.61 0.41 0.41 94 1009.5
20260508222718 13 196 0.0 0.0 0.30 0.36 0.36 94 1009.9
20260508222216 13 195 0.0 0.0 0.00 0.30 0.30 94 1009.8
20260508221712 13 195 0.0 0.0 0.18 0.30 0.30 94 1010.0
20260508221208 13 195 0.0 0.0 0.48 0.30 0.30 93 1009.9
20260508220704 13 195 0.0 0.0 0.61 0.28 0.28 93 1009.9
20260508220201 13 195 0.0 0.0 0.61 0.23 0.23 93 1010.0
20260508215657 13 195 0.0 0.0 0.30 0.18 0.18 92 1010.2
20260508215154 13 195 0.0 0.0 0.36 0.15 0.15 92 1010.1
20260508214651 13 195 0.0 0.0 0.30 0.13 0.13 91 1009.9
20260508214148 13 195 0.0 0.0 0.13 0.10 0.10 91 1009.9
20260508213645 13 195 0.0 0.0 0.00 0.08 0.08 90 1009.8
20260508213141 13 195 0.0 0.0 0.18 0.08 0.08 89 1009.8
20260508212638 13 207 0.0 1.6 0.18 0.08 0.08 89 1009.6
20260508212134 13 206 1.6 1.6 0.13 0.05 0.05 88 1009.6
20260508211629 13 213 0.0 0.0 0.30 0.05 0.05 86 1009.8
20260508211126 14 221 0.0 1.6 0.18 0.03 0.03 84 1009.8
20260508210623 15 80 1.6 3.2 0.00 0.00 0.00 79 1009.5
20260508210120 16 257 1.6 3.2 0.00 0.00 0.00 74 1009.8
20260508205617 16 199 0.0 0.0 0.00 0.00 0.00 73 1009.3
20260508205114 16 199 0.0 0.0 0.00 0.00 0.00 71 1009.2
20260508204610 16 199 0.0 0.0 0.00 0.00 0.00 68 1009.1
20260508204106 16 199 0.0 0.0 0.00 0.00 0.00 70 1009.0
20260508203602 17 199 0.0 0.0 0.00 0.00 0.00 68 1009.2
20260508203058 17 199 0.0 0.0 0.00 0.00 0.00 67 1009.2
20260508202555 17 199 0.0 0.0 0.00 0.00 0.00 61 1009.2
20260508202052 17 199 0.0 0.0 0.00 0.00 0.00 58 1009.3
20260508201549 17 186 0.0 0.0 0.00 0.00 0.00 57 1009.5
20260508201045 17 181 0.0 0.0 0.00 0.00 0.00 56 1009.5
20260508200543 17 181 0.0 0.0 0.00 0.00 0.00 56 1009.6
20260508200038 17 180 0.0 0.0 0.00 0.00 0.00 57 1009.4
20260508195535 17 209 0.0 0.0 0.00 0.00 0.00 58 1009.8
20260508195031 17 195 0.0 0.0 0.00 0.00 0.00 57 1009.9
20260508194528 18 186 0.0 0.0 0.00 0.00 0.00 59 1009.8
20260508194026 18 168 0.0 0.0 0.00 0.00 0.00 57 1009.6
20260508193522 17 224 0.0 0.0 0.00 0.00 0.00 59 1009.9
20260508193019 17 220 0.0 0.0 0.00 0.00 0.00 56 1010.1
20260508192515 17 222 1.6 1.6 0.00 0.00 0.00 55 1010.2
20260508192013 17 220 0.0 1.6 0.00 0.00 0.00 56 1010.2
20260508191509 17 196 0.0 0.0 0.00 0.00 0.00 56 1010.3
20260508191006 17 223 0.0 0.0 0.00 0.00 0.00 56 1010.3
20260508190503 17 207 0.0 0.0 0.00 0.00 0.00 56 1010.3
20260508185959 17 186 0.0 0.0 0.00 0.00 0.00 56 1010.4
20260508185457 17 217 0.0 1.6 0.00 0.00 0.00 57 1010.6
20260508184954 17 201 0.0 0.0 0.00 0.00 0.00 56 1010.8
20260508184452 17 218 0.0 1.6 0.00 0.00 0.00 55 1010.9
20260508183948 17 178 0.0 0.0 0.00 0.00 0.00 55 1011.0
20260508183445 17 198 0.0 0.0 0.00 0.00 0.00 55 1010.7
20260508182940 17 167 1.6 1.6 0.00 0.00 0.00 53 1010.9
20260508182438 17 199 0.0 1.6 0.00 0.00 0.00 54 1010.8
20260508181937 17 144 0.0 0.0 0.00 0.00 0.00 53 1010.8
20260508181434 17 215 1.6 3.2 0.00 0.00 0.00 53 1011.0
20260508180932 17 271 1.6 4.8 0.00 0.00 0.00 53 1011.0
20260508180429 17 215 0.0 0.0 0.00 0.00 0.00 54 1011.2
20260508175924 17 191 0.0 1.6 0.00 0.00 0.00 52 1011.0
20260508175421 17 199 0.0 0.0 0.00 0.00 0.00 52 1011.1
20260508174920 17 204 0.0 1.6 0.00 0.00 0.00 53 1011.1
20260508174417 17 217 0.0 1.6 0.00 0.00 0.00 53 1011.2
20260508173913 17 212 0.0 1.6 0.00 0.00 0.00 51 1011.3
20260508173410 17 214 1.6 1.6 0.00 0.00 0.00 50 1011.3
20260508172906 18 184 0.0 1.6 0.00 0.00 0.00 49 1011.2
20260508172404 19 249 3.2 3.2 0.00 0.00 0.00 48 1011.1
20260508171859 19 142 0.0 0.0 0.00 0.00 0.00 50 1011.1
20260508171356 19 193 0.0 0.0 0.00 0.00 0.00 50 1011.2
20260508170853 19 217 1.6 3.2 0.00 0.00 0.00 48 1011.3
20260508170351 20 137 1.6 1.6 0.00 0.00 0.00 47 1011.5
20260508165847 19 224 1.6 1.6 0.00 0.00 0.00 46 1011.4
20260508165345 20 213 1.6 3.2 0.00 0.00 0.00 48 1011.7
20260508164840 20 243 3.2 6.4 0.00 0.00 0.00 47 1011.8
20260508164338 19 188 0.0 1.6 0.00 0.00 0.00 50 1011.8
20260508163835 18 180 3.2 3.2 0.00 0.00 0.00 48 1012.0
20260508163333 19 228 3.2 3.2 0.00 0.00 0.00 47 1012.2
20260508162828 20 93 3.2 4.8 0.00 0.00 0.00 51 1012.1
20260508162325 20 182 0.0 0.0 0.00 0.00 0.00 51 1012.1
20260508161823 20 184 1.6 1.6 0.00 0.00 0.00 48 1012.2
20260508161320 18 208 0.0 1.6 0.00 0.00 0.00 50 1012.3
20260508160817 17 213 0.0 0.0 0.00 0.00 0.00 55 1012.3
20260508160316 17 219 0.0 0.0 0.00 0.00 0.00 53 1012.4
20260508155812 17 207 0.0 1.6 0.00 0.00 0.00 53 1012.4
20260508155309 17 190 0.0 1.6 0.00 0.00 0.00 51 1012.4
20260508154806 18 265 3.2 3.2 0.00 0.00 0.00 50 1012.3
20260508154304 18 167 0.0 1.6 0.00 0.00 0.00 49 1012.5
20260508153759 17 237 1.6 3.2 0.00 0.00 0.00 51 1012.4
20260508153257 17 198 0.0 1.6 0.00 0.00 0.00 52 1012.5
20260508152753 17 261 1.6 3.2 0.00 0.00 0.00 50 1012.6
20260508152249 18 224 1.6 3.2 0.00 0.00 0.00 51 1012.6
20260508151746 17 203 0.0 0.0 0.00 0.00 0.00 52 1012.5
20260508151243 17 202 0.0 0.0 0.00 0.00 0.00 50 1012.5
20260508150739 17 196 0.0 0.0 0.00 0.00 0.00 52 1012.3
20260508150236 18 193 0.0 0.0 0.00 0.00 0.00 51 1012.8
20260508145732 18 186 0.0 0.0 0.00 0.00 0.00 51 1012.5
20260508145228 17 189 0.0 1.6 0.00 0.00 0.00 51 1012.6
20260508144725 17 172 0.0 0.0 0.00 0.00 0.00 52 1012.4
20260508144224 17 178 0.0 0.0 0.00 0.00 0.00 53 1012.8
20260508143721 16 135 0.0 1.6 0.00 0.00 0.00 53 1012.7
20260508143218 16 188 0.0 1.6 0.00 0.00 0.00 56 1012.8
20260508142714 16 206 0.0 1.6 0.00 0.00 0.00 56 1013.2
20260508142211 16 203 0.0 0.0 0.00 0.00 0.00 56 1012.9
20260508141707 15 208 0.0 1.6 0.00 0.00 0.00 55 1013.0
20260508141205 15 206 0.0 0.0 0.00 0.00 0.00 55 1013.0
20260508140702 15 182 0.0 1.6 0.00 0.00 0.00 55 1013.0
20260508140159 15 156 0.0 0.0 0.00 0.00 0.00 56 1013.2
20260508135655 15 188 0.0 0.0 0.00 0.00 0.00 55 1013.3
20260508135150 15 225 0.0 1.6 0.00 0.00 0.00 56 1013.2
20260508134647 14 209 0.0 1.6 0.00 0.00 0.00 55 1013.2
20260508134144 14 235 1.6 3.2 0.00 0.00 0.00 56 1013.3
20260508133641 14 215 1.6 1.6 0.00 0.00 0.00 56 1013.4
20260508133138 13 198 0.0 1.6 0.00 0.00 0.00 56 1013.4
20260508132636 13 103 0.0 0.0 0.00 0.00 0.00 57 1013.6
20260508132133 13 174 0.0 0.0 0.00 0.00 0.00 58 1013.2
20260508131628 13 200 0.0 1.6 0.00 0.00 0.00 58 1013.3
20260508131125 13 199 0.0 0.0 0.00 0.00 0.00 59 1013.4
20260508130622 13 185 0.0 0.0 0.00 0.00 0.00 60 1013.5
20260508130119 12 197 0.0 0.0 0.00 0.00 0.00 59 1013.6
20260508125619 12 202 0.0 1.6 0.00 0.00 0.00 59 1013.6
20260508125117 12 174 0.0 0.0 0.00 0.00 0.00 61 1013.4
20260508124615 12 175 0.0 0.0 0.00 0.00 0.00 62 1013.5
20260508124112 12 178 0.0 0.0 0.00 0.00 0.00 61 1013.5
20260508123610 12 178 0.0 0.0 0.00 0.00 0.00 59 1013.6
20260508123107 11 172 0.0 0.0 0.00 0.00 0.00 62 1013.3
20260508122603 11 207 0.0 0.0 0.00 0.00 0.00 63 1013.4
20260508122100 11 211 0.0 0.0 0.00 0.00 0.00 66 1013.6
20260508121559 10 211 0.0 0.0 0.00 0.00 0.00 64 1013.5
20260508121056 10 212 0.0 0.0 0.00 0.00 0.00 65 1013.2
20260508120553 10 182 0.0 0.0 0.00 0.00 0.00 67 1013.4
20260508120052 9 178 0.0 0.0 0.00 0.00 0.00 68 1013.3
20260508115549 9 170 0.0 0.0 0.00 0.00 0.00 68 1013.3
20260508115045 9 170 0.0 0.0 0.00 0.00 0.00 69 1013.5
20260508114543 9 170 0.0 0.0 0.00 0.00 0.00 69 1013.5
20260508114039 9 170 0.0 0.0 0.00 0.00 0.00 68 1013.4
20260508113536 9 170 0.0 0.0 0.00 0.00 0.00 69 1013.3
20260508113034 10 170 0.0 0.0 0.00 0.00 0.00 68 1013.1
20260508112530 10 170 0.0 0.0 0.00 0.00 0.00 65 1013.4
20260508112027 10 170 0.0 0.0 0.00 0.00 0.00 66 1013.3
20260508111524 10 170 0.0 0.0 0.00 0.00 0.00 67 1013.3
20260508111021 10 170 0.0 0.0 0.00 0.00 0.00 66 1013.2
20260508110519 10 170 0.0 0.0 0.00 0.00 0.00 64 1013.2
20260508110015 10 169 0.0 0.0 0.00 0.00 0.00 66 1013.0
20260508105510 10 168 0.0 0.0 0.00 0.00 0.00 65 1013.1
20260508105008 10 166 0.0 0.0 0.00 0.00 0.00 62 1013.1
20260508104505 10 207 0.0 0.0 0.00 0.00 0.00 61 1012.8
20260508104001 10 186 0.0 0.0 0.00 0.00 0.00 60 1012.8
20260508103458 10 208 0.0 0.0 0.00 0.00 0.00 61 1012.7
20260508102955 10 175 0.0 0.0 0.00 0.00 0.00 61 1012.9
20260508102454 10 214 0.0 0.0 0.00 0.00 0.00 60 1012.6
20260508101950 10 194 0.0 0.0 0.00 0.00 0.00 61 1012.6
20260508101448 10 196 0.0 0.0 0.00 0.00 0.00 61 1012.7
20260508100945 10 177 0.0 0.0 0.00 0.00 0.00 60 1012.5
20260508100444 10 182 0.0 0.0 0.00 0.00 0.00 61 1012.6
20260508095939 10 217 0.0 0.0 0.00 0.00 0.00 61 1012.7
20260508095437 10 214 0.0 0.0 0.00 0.00 0.00 60 1012.7
20260508094934 10 190 0.0 0.0 0.00 0.00 0.00 59 1012.5
20260508094430 11 190 0.0 0.0 0.00 0.00 0.00 59 1012.7
20260508093927 11 209 0.0 1.6 0.00 0.00 0.00 58 1012.8
20260508093425 11 177 0.0 0.0 0.00 0.00 0.00 58 1012.7
20260508092922 11 176 0.0 0.0 0.00 0.00 0.00 58 1012.8
20260508092420 11 162 0.0 0.0 0.00 0.00 0.00 58 1012.6
20260508091918 11 196 0.0 0.0 0.00 0.00 0.00 59 1012.6
20260508091415 11 192 0.0 0.0 0.00 0.00 0.00 58 1012.8
20260508090912 11 188 0.0 0.0 0.00 0.00 0.00 59 1012.8
20260508090411 11 179 0.0 0.0 0.00 0.00 0.00 58 1013.0
20260508085911 11 195 0.0 0.0 0.00 0.00 0.00 58 1012.7
20260508085409 11 204 0.0 1.6 0.00 0.00 0.00 57 1012.7
20260508084905 11 213 0.0 0.0 0.00 0.00 0.00 57 1012.8
20260508084402 12 203 0.0 0.0 0.00 0.00 0.00 57 1012.9
20260508083900 12 177 0.0 0.0 0.00 0.00 0.00 56 1013.2
20260508083357 11 196 0.0 0.0 0.00 0.00 0.00 57 1012.9
20260508082856 11 197 0.0 0.0 0.00 0.00 0.00 57 1013.2
20260508082354 11 211 0.0 0.0 0.00 0.00 0.00 58 1013.3
20260508081852 11 207 0.0 0.0 0.00 0.00 0.00 56 1013.3
20260508081348 11 195 0.0 0.0 0.00 0.00 0.00 57 1013.4
20260508080845 12 195 0.0 1.6 0.00 0.00 0.00 58 1013.5
20260508080343 12 190 0.0 0.0 0.00 0.00 0.00 56 1013.5
20260508075839 12 182 0.0 0.0 0.00 0.00 0.00 56 1013.5
20260508075336 12 214 0.0 0.0 0.00 0.00 0.00 55 1013.6
20260508074834 12 169 0.0 1.6 0.00 0.00 0.00 54 1013.5
20260508074331 12 177 0.0 1.6 0.00 0.00 0.00 54 1013.5
20260508073828 11 187 0.0 0.0 0.00 0.00 0.00 57 1013.5
20260508073326 11 203 0.0 0.0 0.00 0.00 0.00 56 1013.3
20260508072822 11 207 1.6 1.6 0.00 0.00 0.00 55 1013.2
20260508072319 11 197 0.0 0.0 0.00 0.00 0.00 57 1013.3
20260508071816 11 177 0.0 0.0 0.00 0.00 0.00 56 1013.2
20260508071315 11 211 0.0 0.0 0.00 0.00 0.00 57 1013.4
20260508070811 11 210 0.0 0.0 0.00 0.00 0.00 56 1013.3
20260508070310 11 147 0.0 1.6 0.00 0.00 0.00 55 1013.2
20260508065807 11 214 0.0 0.0 0.00 0.00 0.00 57 1013.0
20260508065307 11 189 0.0 0.0 0.00 0.00 0.00 57 1013.2